EJU78YG LSGG-LEBL

Flight info

Callsign EJU78YG
Flight time N/A
Altitude 29000
Route BALSI DCT RETNO DCT TUPOX DCT MTG DCT DIVKO DCT NILDU N975 BISBA
Aircraft A320/M-SDE3FGHIRWY/LB1

Departure

Time 2026-05-07 23:58
Airport Geneva International Airport (LSGG)

Arrival

Time N/A
Airport Josep Tarradellas Barcelona-El Prat Airport (LEBL)
Time Latitude Longitude Altitude Speed Heading
2026-05-07 23:35 46.22926 6.10404 1392 ft 0 kts 153°
2026-05-07 23:48 46.22927 6.10403 1391 ft 1 kts 153°
2026-05-07 23:49 46.22940 6.10394 1391 ft 2 kts 153°
2026-05-07 23:49 46.22953 6.10384 1391 ft 2 kts 168°
2026-05-07 23:49 46.22969 6.10383 1390 ft 2 kts 188°
2026-05-07 23:49 46.22983 6.10390 1390 ft 2 kts 209°
2026-05-07 23:50 46.22995 6.10403 1390 ft 2 kts 229°
2026-05-07 23:50 46.23005 6.10419 1390 ft 2 kts 224°
2026-05-07 23:50 46.23011 6.10427 1389 ft 0 kts 225°
2026-05-07 23:52 46.23010 6.10426 1389 ft 0 kts 225°
2026-05-07 23:52 46.23006 6.10420 1390 ft 2 kts 225°
2026-05-07 23:53 46.23006 6.10419 1390 ft 2 kts 225°
2026-05-07 23:53 46.22988 6.10394 1390 ft 5 kts 225°
2026-05-07 23:53 46.22981 6.10317 1390 ft 11 kts 301°
2026-05-07 23:53 46.23029 6.10204 1389 ft 13 kts 302°
2026-05-07 23:54 46.23109 6.10205 1388 ft 14 kts 49°
2026-05-07 23:54 46.23189 6.10331 1383 ft 19 kts 45°
2026-05-07 23:54 46.23285 6.10470 1384 ft 19 kts 46°
2026-05-07 23:54 46.23380 6.10609 1382 ft 19 kts 44°
2026-05-07 23:55 46.23475 6.10740 1381 ft 19 kts 45°
2026-05-07 23:55 46.23573 6.10883 1379 ft 20 kts 46°
2026-05-07 23:55 46.23673 6.11030 1377 ft 21 kts 45°
2026-05-07 23:55 46.23779 6.11186 1373 ft 22 kts 45°
2026-05-07 23:56 46.23889 6.11347 1372 ft 22 kts 45°
2026-05-07 23:56 46.23998 6.11507 1370 ft 22 kts 46°
2026-05-07 23:56 46.24108 6.11668 1368 ft 22 kts 45°
2026-05-07 23:56 46.24219 6.11832 1367 ft 21 kts 45°
2026-05-07 23:57 46.24319 6.11951 1365 ft 15 kts 354°
2026-05-07 23:57 46.24337 6.11830 1367 ft 13 kts 253°
2026-05-07 23:57 46.24346 6.11712 1367 ft 11 kts 294°
2026-05-07 23:57 46.24311 6.11634 1367 ft 9 kts 225°
2026-05-07 23:58 46.24180 6.11441 1370 ft 59 kts 225°
2026-05-07 23:58 46.23716 6.10762 1377 ft 125 kts 225°
2026-05-07 23:58 46.23004 6.09719 1583 ft 157 kts 226°
2026-05-07 23:58 46.22234 6.08606 2149 ft 159 kts 225°
2026-05-07 23:59 46.21447 6.07468 2749 ft 163 kts 226°
2026-05-07 23:59 46.20661 6.06299 3350 ft 163 kts 227°
2026-05-07 23:59 46.19872 6.05125 3815 ft 166 kts 227°
2026-05-07 23:59 46.19048 6.03906 4280 ft 170 kts 226°
2026-05-08 00:00 46.18259 6.02745 4725 ft 174 kts 226°
2026-05-08 00:00 46.17414 6.01510 5057 ft 187 kts 226°
2026-05-08 00:00 46.16459 6.00121 5383 ft 204 kts 226°
2026-05-08 00:00 46.15733 5.99054 5624 ft 216 kts 226°
2026-05-08 00:01 46.14619 5.97397 5890 ft 239 kts 226°
2026-05-08 00:01 46.13408 5.95588 6321 ft 257 kts 226°
2026-05-08 00:01 46.12127 5.93679 6761 ft 274 kts 226°
2026-05-08 00:01 46.10641 5.91881 7420 ft 282 kts 207°
2026-05-08 00:02 46.08760 5.91202 8255 ft 282 kts 181°
2026-05-08 00:02 46.06813 5.91287 9106 ft 283 kts 177°
2026-05-08 00:02 46.04813 5.91468 9843 ft 288 kts 177°
2026-05-08 00:02 46.02848 5.91654 10528 ft 294 kts 178°
2026-05-08 00:03 46.00737 5.91841 10942 ft 310 kts 178°
2026-05-08 00:03 45.98602 5.92017 11315 ft 325 kts 178°
2026-05-08 00:03 45.96305 5.92202 12051 ft 327 kts 178°
2026-05-08 00:03 45.94605 5.92340 12674 ft 326 kts 178°
2026-05-08 00:04 45.92212 5.92534 13399 ft 329 kts 178°
2026-05-08 00:04 45.90008 5.92710 13990 ft 334 kts 178°
2026-05-08 00:04 45.87925 5.92877 14545 ft 337 kts 178°
2026-05-08 00:04 45.85684 5.93056 15131 ft 341 kts 178°
2026-05-08 00:05 45.83274 5.93248 15736 ft 344 kts 178°
2026-05-08 00:05 45.81032 5.93427 16280 ft 348 kts 178°
2026-05-08 00:05 45.79213 5.93572 16709 ft 350 kts 178°
2026-05-08 00:05 45.76746 5.93768 17271 ft 354 kts 179°
2026-05-08 00:06 45.74401 5.93954 17785 ft 357 kts 179°
2026-05-08 00:06 45.71874 5.94154 18321 ft 361 kts 179°
2026-05-08 00:06 45.69340 5.94356 18848 ft 364 kts 179°
2026-05-08 00:06 45.66773 5.94560 19373 ft 367 kts 179°
2026-05-08 00:07 45.66196 5.94606 19488 ft 367 kts 179°
2026-05-08 00:07 45.63703 5.94803 19977 ft 370 kts 179°
2026-05-08 00:07 45.61116 5.95008 20470 ft 373 kts 179°
2026-05-08 00:07 45.58476 5.95215 20966 ft 376 kts 179°
2026-05-08 00:08 45.55850 5.95422 21438 ft 378 kts 179°
2026-05-08 00:08 45.53225 5.95628 21901 ft 381 kts 179°
2026-05-08 00:08 45.50722 5.95810 22329 ft 383 kts 181°
2026-05-08 00:08 45.48802 5.95807 22649 ft 384 kts 184°
2026-05-08 00:09 45.45546 5.95364 23183 ft 385 kts 192°
2026-05-08 00:09 45.42898 5.94618 23618 ft 386 kts 194°
2026-05-08 00:09 45.40286 5.93798 24036 ft 388 kts 195°
2026-05-08 00:09 45.37610 5.92948 24451 ft 391 kts 195°
2026-05-08 00:10 45.34942 5.92105 24874 ft 392 kts 195°
2026-05-08 00:10 45.32243 5.91258 25296 ft 394 kts 195°
2026-05-08 00:10 45.29572 5.90421 25699 ft 395 kts 195°
2026-05-08 00:10 45.27064 5.89639 26138 ft 394 kts 195°
2026-05-08 00:11 45.24370 5.88802 26695 ft 391 kts 195°
2026-05-08 00:11 45.21701 5.87973 27041 ft 394 kts 195°
2026-05-08 00:11 45.19033 5.87143 27292 ft 398 kts 196°
2026-05-08 00:11 45.16310 5.86296 27547 ft 402 kts 196°
2026-05-08 00:12 45.13565 5.85444 27801 ft 406 kts 196°
2026-05-08 00:12 45.10773 5.84580 28057 ft 409 kts 196°
2026-05-08 00:12 45.07989 5.83720 28312 ft 412 kts 196°
2026-05-08 00:12 45.05165 5.82847 28567 ft 414 kts 196°
2026-05-08 00:13 45.02356 5.81982 28819 ft 416 kts 197°
2026-05-08 00:13 44.99674 5.81155 29026 ft 419 kts 197°
2026-05-08 00:13 44.93880 5.79367 29053 ft 433 kts 197°
2026-05-08 00:14 44.88065 5.77578 29057 ft 443 kts 197°
2026-05-08 00:14 44.82177 5.75778 29048 ft 439 kts 197°
2026-05-08 00:15 44.80016 5.75125 29046 ft 424 kts 197°
2026-05-08 00:15 44.77452 5.74350 29045 ft 407 kts 197°
2026-05-08 00:15 44.75223 5.73674 29045 ft 396 kts 197°
2026-05-08 00:15 44.72443 5.72824 29051 ft 391 kts 197°
2026-05-08 00:16 44.67064 5.71175 29052 ft 388 kts 198°
2026-05-08 00:16 44.61796 5.69568 29052 ft 388 kts 198°
2026-05-08 00:17 44.56477 5.67950 29053 ft 387 kts 198°
2026-05-08 00:17 44.51185 5.66347 29053 ft 387 kts 198°
2026-05-08 00:18 44.45918 5.64754 29053 ft 387 kts 198°
2026-05-08 00:18 44.40727 5.63159 29053 ft 386 kts 199°
2026-05-08 00:19 44.35892 5.61143 29053 ft 388 kts 204°
2026-05-08 00:19 44.32396 5.59129 29057 ft 389 kts 206°
2026-05-08 00:20 44.27991 5.56215 29048 ft 387 kts 207°
2026-05-08 00:20 44.23490 5.53245 29038 ft 387 kts 207°
2026-05-08 00:21 44.18590 5.50040 29031 ft 387 kts 207°
2026-05-08 00:21 44.13644 5.46821 29028 ft 387 kts 206°
2026-05-08 00:22 44.08735 5.43636 29027 ft 387 kts 206°